Location: Zagreb
(45.8000°N, 16.0000°E)
Time: 00:46:24
(UTC+01:00)

Altair - Visible Passes

Search period start: 26 January 2020 00:00
Search period end: 05 February 2020 00:00
Orbit: 1502 x 1682 km, 47.2° (Epoch: 25 January)

Date Brightness Start Highest point End Pass type
(mag) Time Alt. Az. Time Alt. Az. Time Alt. Az.
26 Jan 9.8 06:24:34 10° S 06:32:07 25° SE 06:39:46 10° E visible
27 Jan 9.8 05:59:54 10° S 06:07:03 23° SE 06:14:20 10° E visible
28 Jan 9.8 05:35:19 10° S 05:42:01 21° SE 05:48:49 10° E visible
29 Jan 9.8 05:10:49 10° SSE 05:17:00 19° SE 05:23:16 10° E visible
30 Jan 9.8 04:46:25 10° SSE 04:51:59 17° SE 04:57:37 10° E visible
30 Jan 8.6 06:45:29 10° SW 06:54:58 52° SE 07:04:39 10° ENE visible
31 Jan 9.8 04:22:10 10° SSE 04:26:59 15° ESE 04:31:51 10° E visible
31 Jan 8.6 06:20:30 10° SSW 06:29:50 49° SE 06:39:24 10° ENE visible
01 Feb 9.8 03:58:08 10° SE 04:01:59 13° ESE 04:05:52 10° E visible
01 Feb 8.6 05:55:32 10° SSW 06:04:43 46° SE 06:14:08 10° ENE visible
02 Feb 9.8 03:34:34 10° SE 03:37:00 11° ESE 03:39:26 10° ESE visible
02 Feb 8.7 05:30:35 10° SSW 05:39:36 43° SE 05:48:52 10° ENE visible
03 Feb 8.7 05:05:40 10° SSW 05:14:31 40° SE 05:23:35 10° ENE visible
04 Feb 8.7 04:40:48 10° SSW 04:49:26 37° SE 04:58:17 10° ENE visible
